Weather in Te Anau

New Zealand     45°24′56″S   167°43′08″E
temp.,
°C
wind,
m/s
gust,
m/s
humid.,
%
clouds,
%
prec.,
mm/h
press.,
hPa
HPBL,
m
28 november, sun
sun2801:00+3se11989 0.0 102415
04:00+2ese119933 0.0 102314
07:00+2se1197100 0.0 102338
10:00+11wnw1162100 0.0 1022508
13:00+17wnw21402 0.0 1019868
16:00+20nw21270 0.0 1017849
19:00+19w12410 0.0 1016319
22:00+8s11840 0.0 102028
29 november, mon
mon2901:00+5e1195100 0.0 102011
04:00+4e119718 0.0 102011
07:00+3e1183100 0.0 102134
10:00+15n123415 0.0 1019395
13:00+22wnw132195 0.0 10171242
16:00+23wsw23195 0.0 10151512
19:00+22wsw13374 0.0 1014292
22:00+11s11750 0.0 101710
30 november, tue
tue3001:00+8se11900 0.0 101811
04:00+6ese11963 0.0 101711
07:00+7se01860 0.0 101928
10:00+16w114497 0.0 1018593
13:00+21wsw2232100 0.0 10161390
16:00+22ssw323622 0.0 10161873
19:00+18s2355100 0.0 1018967
22:00+9ssw12949 0.0 102146
1 december, wed
wed101:00+9s1292100 0.0 1022112
04:00+9sse018999 0.0 1021149
07:00+10ese118678 0.0 1022203
10:00+15nnw016416 0.0 1021731
13:00+22w11460 0.0 1019927
16:00+24nw233667 0.0 10171944
19:00+20ssw2561100 0.1 1018384
22:00+13s1186100 0.1 102228
2 december, thu
thu201:00+11se0193100 0.1 102313
04:00+10ene1191100 0.0 102218
07:00+10ese1183100 0.0 102239
10:00+13ese0170100 0.0 102293
13:00+10s2397100 1.2 1023135
16:00+15w2166100 0.0 1021380
19:00+16n1273100 0.1 1020244
22:00+12ese1187100 0.0 102114